VKG4919 ESMX-ESSV

Flight info

Callsign VKG4919
Flight time 0h 35m
Altitude 17000
Route MX800 DCT MOVIS DCT KINTI
Aircraft A339/H-SADE1E2E3GHIJ3J5M1P2RWXY/LB2D1

Departure

Time 2026-05-06 17:28
Airport Växjö Kronoberg Airport (ESMX)

Arrival

Time 2026-05-06 18:03
Airport Visby Airport (ESSV)
Time Latitude Longitude Altitude Speed Heading
2026-05-06 17:05 56.92594 14.73088 612 ft 0 kts 143°
2026-05-06 17:22 56.92592 14.73089 612 ft 1 kts 148°
2026-05-06 17:22 56.92582 14.73082 627 ft 1 kts 185°
2026-05-06 17:22 56.92576 14.73061 626 ft 3 kts 229°
2026-05-06 17:22 56.92550 14.73018 624 ft 7 kts 215°
2026-05-06 17:23 56.92495 14.72969 621 ft 11 kts 200°
2026-05-06 17:23 56.92411 14.72937 614 ft 14 kts 192°
2026-05-06 17:23 56.92307 14.72896 620 ft 17 kts 193°
2026-05-06 17:23 56.92185 14.72844 619 ft 21 kts 193°
2026-05-06 17:24 56.92050 14.72781 625 ft 15 kts 201°
2026-05-06 17:24 56.91987 14.72658 620 ft 13 kts 246°
2026-05-06 17:24 56.91982 14.72616 618 ft 0 kts 262°
2026-05-06 17:26 56.91982 14.72615 618 ft 1 kts 262°
2026-05-06 17:27 56.91989 14.72517 610 ft 14 kts 282°
2026-05-06 17:27 56.92048 14.72427 621 ft 10 kts 358°
2026-05-06 17:27 56.92082 14.72440 620 ft 20 kts 12°
2026-05-06 17:27 56.92540 14.72641 613 ft 114 kts 13°
2026-05-06 17:28 56.93562 14.73066 796 ft 172 kts 15°
2026-05-06 17:28 56.94810 14.73633 1529 ft 188 kts 16°
2026-05-06 17:28 56.96074 14.74181 2588 ft 187 kts 14°
2026-05-06 17:28 56.97399 14.74733 3235 ft 205 kts 14°
2026-05-06 17:29 56.98856 14.75343 3749 ft 226 kts 14°
2026-05-06 17:29 57.00384 14.76344 4215 ft 243 kts 34°
2026-05-06 17:29 57.01583 14.78628 4633 ft 259 kts 62°
2026-05-06 17:29 57.02076 14.81814 5213 ft 264 kts 90°
2026-05-06 17:30 57.01698 14.85091 5951 ft 267 kts 116°
2026-05-06 17:30 57.00526 14.87749 6634 ft 273 kts 142°
2026-05-06 17:30 56.98772 14.89249 7122 ft 287 kts 169°
2026-05-06 17:30 56.96803 14.89148 7976 ft 283 kts 197°
2026-05-06 17:31 56.95067 14.87540 8641 ft 282 kts 221°
2026-05-06 17:31 56.93460 14.85430 8851 ft 287 kts 208°
2026-05-06 17:31 56.91524 14.84530 9218 ft 292 kts 182°
2026-05-06 17:31 56.89530 14.85184 10018 ft 294 kts 159°
2026-05-06 17:32 56.87767 14.87211 10370 ft 312 kts 137°
2026-05-06 17:32 56.86451 14.90500 10568 ft 332 kts 115°
2026-05-06 17:32 56.85853 14.94653 10885 ft 344 kts 92°
2026-05-06 17:32 56.86131 14.98986 11493 ft 346 kts 71°
2026-05-06 17:33 56.87232 15.02894 12082 ft 348 kts 51°
2026-05-06 17:33 56.89018 15.05875 12679 ft 349 kts 32°
2026-05-06 17:33 56.91034 15.08401 13231 ft 355 kts 36°
2026-05-06 17:33 56.92832 15.11561 13833 ft 362 kts 48°
2026-05-06 17:34 56.94289 15.15368 14362 ft 368 kts 58°
2026-05-06 17:34 56.95103 15.18102 14717 ft 371 kts 62°
2026-05-06 17:34 56.96205 15.22405 15245 ft 376 kts 65°
2026-05-06 17:34 56.97243 15.26832 15778 ft 380 kts 66°
2026-05-06 17:35 56.98273 15.31325 16306 ft 384 kts 67°
2026-05-06 17:35 56.99316 15.35864 16769 ft 390 kts 66°
2026-05-06 17:35 57.00380 15.40459 16936 ft 393 kts 66°
2026-05-06 17:36 57.02573 15.49884 16963 ft 403 kts 66°
2026-05-06 17:36 57.03674 15.54614 16969 ft 403 kts 66°
2026-05-06 17:36 57.04773 15.59345 16975 ft 403 kts 66°
2026-05-06 17:36 57.05871 15.64082 16973 ft 403 kts 66°
2026-05-06 17:37 57.06965 15.68816 16969 ft 403 kts 66°
2026-05-06 17:37 57.08058 15.73556 16973 ft 403 kts 66°
2026-05-06 17:37 57.09150 15.78303 16975 ft 403 kts 67°
2026-05-06 17:37 57.10240 15.83051 16972 ft 403 kts 67°
2026-05-06 17:38 57.11326 15.87793 16974 ft 403 kts 67°
2026-05-06 17:38 57.12411 15.92540 16975 ft 403 kts 67°
2026-05-06 17:38 57.13496 15.97300 16976 ft 403 kts 67°
2026-05-06 17:38 57.14577 16.02050 16979 ft 403 kts 67°
2026-05-06 17:39 57.15659 16.06817 16970 ft 403 kts 67°
2026-05-06 17:39 57.16738 16.11579 16987 ft 403 kts 67°
2026-05-06 17:39 57.17817 16.16356 16974 ft 404 kts 67°
2026-05-06 17:39 57.18895 16.21139 16972 ft 404 kts 67°
2026-05-06 17:40 57.19968 16.25912 16972 ft 402 kts 67°
2026-05-06 17:40 57.21036 16.30672 16975 ft 402 kts 67°
2026-05-06 17:40 57.22055 16.35468 16978 ft 402 kts 71°
2026-05-06 17:40 57.22828 16.40434 16974 ft 402 kts 74°
2026-05-06 17:41 57.23591 16.45405 16977 ft 402 kts 74°
2026-05-06 17:41 57.24354 16.50294 16977 ft 402 kts 74°
2026-05-06 17:41 57.25131 16.55263 16979 ft 402 kts 74°
2026-05-06 17:41 57.25901 16.60225 16975 ft 402 kts 74°
2026-05-06 17:42 57.26669 16.65191 16881 ft 402 kts 74°
2026-05-06 17:42 57.27432 16.70150 16631 ft 400 kts 74°
2026-05-06 17:42 57.28187 16.75073 16325 ft 396 kts 74°
2026-05-06 17:42 57.29093 16.79887 15635 ft 397 kts 68°
2026-05-06 17:43 57.30170 16.84601 14723 ft 400 kts 66°
2026-05-06 17:43 57.31282 16.89314 13870 ft 398 kts 66°
2026-05-06 17:43 57.32361 16.93981 13065 ft 391 kts 66°
2026-05-06 17:43 57.33391 16.98571 12461 ft 380 kts 67°
2026-05-06 17:44 57.34372 17.03034 11917 ft 369 kts 67°
2026-05-06 17:44 57.35315 17.07373 11362 ft 358 kts 68°
2026-05-06 17:44 57.36228 17.11595 10846 ft 348 kts 68°
2026-05-06 17:44 57.37112 17.15694 10436 ft 335 kts 68°
2026-05-06 17:45 57.37948 17.19582 10250 ft 315 kts 68°
2026-05-06 17:45 57.38737 17.23258 10084 ft 296 kts 68°
2026-05-06 17:45 57.39473 17.26689 9982 ft 278 kts 68°
2026-05-06 17:45 57.40195 17.30053 9986 ft 284 kts 68°
2026-05-06 17:46 57.40921 17.33443 9981 ft 281 kts 67°
2026-05-06 17:46 57.41644 17.36824 9981 ft 283 kts 68°
2026-05-06 17:46 57.42371 17.40225 9983 ft 283 kts 68°
2026-05-06 17:46 57.43091 17.43613 9982 ft 282 kts 68°
2026-05-06 17:47 57.43812 17.47004 9981 ft 283 kts 68°
2026-05-06 17:47 57.44536 17.50412 9983 ft 284 kts 68°
2026-05-06 17:47 57.45255 17.53810 9982 ft 282 kts 68°
2026-05-06 17:47 57.45973 17.57204 9983 ft 283 kts 68°
2026-05-06 17:48 57.46693 17.60609 9984 ft 283 kts 68°
2026-05-06 17:48 57.47410 17.64012 9987 ft 282 kts 68°
2026-05-06 17:48 57.48126 17.67412 9989 ft 283 kts 68°
2026-05-06 17:48 57.48835 17.70782 9987 ft 284 kts 68°
2026-05-06 17:49 57.49558 17.74234 9987 ft 283 kts 68°
2026-05-06 17:49 57.50272 17.77644 9989 ft 283 kts 68°
2026-05-06 17:49 57.50978 17.81015 9987 ft 284 kts 68°
2026-05-06 17:49 57.51699 17.84476 9988 ft 283 kts 68°
2026-05-06 17:50 57.52399 17.87837 9986 ft 283 kts 68°
2026-05-06 17:50 57.53111 17.91254 9985 ft 284 kts 68°
2026-05-06 17:50 57.53819 17.94666 9907 ft 282 kts 68°
2026-05-06 17:50 57.54522 17.98061 9466 ft 279 kts 68°
2026-05-06 17:51 57.55218 18.01425 8687 ft 278 kts 68°
2026-05-06 17:51 57.55907 18.04762 7949 ft 273 kts 68°
2026-05-06 17:51 57.56573 18.08005 7368 ft 263 kts 68°
2026-05-06 17:51 57.57222 18.11176 6941 ft 260 kts 68°
2026-05-06 17:52 57.57845 18.14230 6763 ft 248 kts 68°
2026-05-06 17:52 57.58455 18.17235 6322 ft 248 kts 68°
2026-05-06 17:52 57.59059 18.20211 5720 ft 242 kts 68°
2026-05-06 17:52 57.59655 18.23133 5111 ft 241 kts 68°
2026-05-06 17:53 57.60250 18.26038 4514 ft 238 kts 68°
2026-05-06 17:53 57.60832 18.28901 4107 ft 235 kts 70°
2026-05-06 17:53 57.60952 18.31944 3998 ft 239 kts 99°
2026-05-06 17:53 57.60300 18.34803 4000 ft 242 kts 117°
2026-05-06 17:54 57.59484 18.37525 3992 ft 238 kts 117°
2026-05-06 17:54 57.58685 18.40217 3996 ft 237 kts 117°
2026-05-06 17:54 57.57887 18.42892 3995 ft 237 kts 117°
2026-05-06 17:54 57.57086 18.45583 3994 ft 237 kts 117°
2026-05-06 17:55 57.56287 18.48265 3897 ft 235 kts 117°
2026-05-06 17:55 57.55446 18.50850 3419 ft 235 kts 129°
2026-05-06 17:55 57.54104 18.52577 2755 ft 239 kts 157°
2026-05-06 17:55 57.52487 18.52820 2367 ft 229 kts 187°
2026-05-06 17:56 57.51134 18.51547 2202 ft 212 kts 222°
2026-05-06 17:56 57.50420 18.49197 2195 ft 214 kts 257°
2026-05-06 17:56 57.50350 18.46501 2193 ft 209 kts 273°
2026-05-06 17:56 57.50308 18.43794 2196 ft 210 kts 267°
2026-05-06 17:57 57.50152 18.41102 2194 ft 208 kts 263°
2026-05-06 17:57 57.49930 18.38442 2194 ft 208 kts 261°
2026-05-06 17:57 57.49682 18.35781 2193 ft 210 kts 260°
2026-05-06 17:57 57.49424 18.33110 2195 ft 210 kts 261°
2026-05-06 17:58 57.49181 18.30440 2189 ft 209 kts 264°
2026-05-06 17:58 57.49376 18.27844 2188 ft 196 kts 296°
2026-05-06 17:58 57.50107 18.26025 2177 ft 159 kts 324°
2026-05-06 17:58 57.51011 18.25070 2204 ft 150 kts 345°
2026-05-06 17:59 57.51990 18.24751 2197 ft 139 kts
2026-05-06 17:59 57.52941 18.25052 2194 ft 137 kts 23°
2026-05-06 17:59 57.53807 18.25745 2194 ft 136 kts 29°
2026-05-06 17:59 57.54682 18.26441 2195 ft 138 kts 27°
2026-05-06 18:00 57.55573 18.27094 2199 ft 138 kts 25°
2026-05-06 18:00 57.56464 18.27712 2194 ft 135 kts 25°
2026-05-06 18:00 57.57352 18.28326 2170 ft 137 kts 25°
2026-05-06 18:00 57.58240 18.28951 1958 ft 134 kts 25°
2026-05-06 18:01 57.59132 18.29544 1791 ft 135 kts 25°
2026-05-06 18:01 57.60018 18.30146 1607 ft 138 kts 25°
2026-05-06 18:01 57.60893 18.30784 1371 ft 133 kts 27°
2026-05-06 18:01 57.61760 18.31441 1196 ft 132 kts 26°
2026-05-06 18:02 57.62635 18.32063 981 ft 134 kts 25°
2026-05-06 18:02 57.63514 18.32655 734 ft 135 kts 24°
2026-05-06 18:02 57.64379 18.33261 459 ft 134 kts 26°
2026-05-06 18:02 57.65252 18.33885 223 ft 132 kts 24°
2026-05-06 18:03 57.66056 18.34470 163 ft 101 kts 20°
2026-05-06 18:03 57.66564 18.34823 161 ft 60 kts 22°
2026-05-06 18:03 57.66930 18.35088 164 ft 32 kts 20°
2026-05-06 18:03 57.67042 18.35159 164 ft 16 kts 11°
2026-05-06 18:04 57.67100 18.35185 164 ft 3 kts 55°
2026-05-06 18:04 57.67092 18.35212 164 ft 1 kts 117°
2026-05-06 18:04 57.67074 18.35209 165 ft 3 kts 185°
2026-05-06 18:04 57.67022 18.35157 164 ft 16 kts 205°
2026-05-06 18:05 57.66870 18.35043 163 ft 30 kts 201°
2026-05-06 18:05 57.66664 18.34897 160 ft 32 kts 200°
2026-05-06 18:05 57.66458 18.34749 162 ft 31 kts 201°
2026-05-06 18:05 57.66258 18.34602 163 ft 31 kts 201°
2026-05-06 18:06 57.66064 18.34464 163 ft 19 kts 200°
2026-05-06 18:06 57.65981 18.34392 162 ft 10 kts 216°
2026-05-06 18:06 57.65972 18.34281 164 ft 8 kts 289°
2026-05-06 18:06 57.65995 18.34171 164 ft 10 kts 291°
2026-05-06 18:07 57.66019 18.34055 165 ft 3 kts 291°
2026-05-06 18:07 57.66036 18.34029 165 ft 3 kts 328°
2026-05-06 18:07 57.66064 18.34034 165 ft 4 kts 15°
2026-05-06 18:07 57.66101 18.34042 165 ft 6 kts
2026-05-06 18:08 57.66125 18.34071 165 ft 1 kts 42°
2026-05-06 18:08 57.66131 18.34097 165 ft 2 kts 64°
2026-05-06 18:08 57.66130 18.34109 165 ft 0 kts 81°